Time,TemperatureF,DewpointF,PressureIn,WindDirection,WindDirectionDegrees,WindSpeedMPH,WindSpeedGustMPH,Humidity,HourlyPrecipIn,Conditions,Clouds,dailyrainin,SoftwareType,DateUTC
2013-02-18 00:00:00,34.0,23.1,30.29,West,273,0.0,0.0,64,0.00,,,0.02,Wunderground v.1.15,2013-02-18 05:00:00,
2013-02-18 00:05:00,34.1,22.0,30.29,West,278,0.0,2.0,61,0.00,,,0.00,Wunderground v.1.15,2013-02-18 05:05:00,
2013-02-18 00:10:00,34.4,23.1,30.29,West,267,0.0,0.0,63,0.00,,,0.00,Wunderground v.1.15,2013-02-18 05:10:00,
2013-02-18 00:15:00,34.7,22.6,30.29,West,266,1.0,4.0,61,0.00,,,0.00,Wunderground v.1.15,2013-02-18 05:15:00,
2013-02-18 00:25:00,35.2,21.9,30.29,West,268,3.0,4.0,58,0.00,,,0.00,Wunderground v.1.15,2013-02-18 05:25:00,
2013-02-18 00:35:00,35.4,22.1,30.30,West,279,1.0,3.0,58,0.00,,,0.00,Wunderground v.1.15,2013-02-18 05:35:00,
2013-02-18 00:40:00,35.3,22.4,30.30,WNW,284,1.0,1.0,59,0.00,,,0.00,Wunderground v.1.15,2013-02-18 05:40:00,
2013-02-18 00:45:00,35.2,22.7,30.30,West,268,2.0,2.0,60,0.00,,,0.00,Wunderground v.1.15,2013-02-18 05:45:00,
2013-02-18 00:55:00,35.3,24.0,30.30,West,273,0.0,1.0,63,0.00,,,0.00,Wunderground v.1.15,2013-02-18 05:55:00,
2013-02-18 01:05:00,35.3,24.7,30.30,West,281,1.0,1.0,65,0.00,,,0.00,Wunderground v.1.15,2013-02-18 06:05:00,
2013-02-18 01:15:00,35.3,25.4,30.30,West,259,0.0,0.0,67,0.00,,,0.00,Wunderground v.1.15,2013-02-18 06:15:00,
2013-02-18 01:25:00,35.3,25.1,30.30,WNW,292,0.0,0.0,66,0.00,,,0.00,Wunderground v.1.15,2013-02-18 06:25:00,
2013-02-18 01:35:00,35.3,24.0,30.30,West,275,0.0,1.0,63,0.00,,,0.00,Wunderground v.1.15,2013-02-18 06:35:00,
2013-02-18 01:45:00,35.2,23.1,30.31,NW,308,0.0,0.0,61,0.00,,,0.00,Wunderground v.1.15,2013-02-18 06:45:00,
2013-02-18 01:50:00,35.0,22.9,30.31,West,277,1.0,1.0,61,0.00,,,0.00,Wunderground v.1.15,2013-02-18 06:50:00,
2013-02-18 02:00:00,34.8,23.1,30.31,WNW,292,0.0,0.0,62,0.00,,,0.00,Wunderground v.1.15,2013-02-18 07:00:00,
2013-02-18 02:10:00,34.3,23.4,30.31,WNW,296,1.0,3.0,64,0.00,,,0.00,Wunderground v.1.15,2013-02-18 07:10:00,
2013-02-18 02:15:00,34.1,23.2,30.32,WNW,290,1.0,3.0,64,0.00,,,0.00,Wunderground v.1.15,2013-02-18 07:15:00,
2013-02-18 02:25:00,33.8,23.3,30.32,WNW,286,1.0,2.0,65,0.00,,,0.00,Wunderground v.1.15,2013-02-18 07:25:00,
2013-02-18 02:30:00,33.6,23.1,30.32,WNW,290,1.0,2.0,65,0.00,,,0.00,Wunderground v.1.15,2013-02-18 07:30:00,
2013-02-18 02:40:00,33.4,22.9,30.32,NW,305,1.0,1.0,65,0.00,,,0.00,Wunderground v.1.15,2013-02-18 07:40:00,
2013-02-18 02:50:00,33.0,22.9,30.32,WNW,294,0.0,0.0,66,0.00,,,0.00,Wunderground v.1.15,2013-02-18 07:50:00,
2013-02-18 03:00:00,32.9,23.1,30.32,WNW,288,2.0,2.0,67,0.00,,,0.00,Wunderground v.1.15,2013-02-18 08:00:00,
2013-02-18 03:10:00,32.8,23.0,30.33,WNW,284,2.0,2.0,67,0.00,,,0.00,Wunderground v.1.15,2013-02-18 08:10:00,
2013-02-18 03:20:00,32.5,22.8,30.33,WNW,291,3.0,4.0,67,0.00,,,0.00,Wunderground v.1.15,2013-02-18 08:20:00,
2013-02-18 03:25:00,32.5,22.8,30.32,WNW,288,3.0,4.0,67,0.00,,,0.00,Wunderground v.1.15,2013-02-18 08:25:00,
2013-02-18 03:35:00,32.4,23.0,30.32,WNW,296,3.0,6.0,68,0.00,,,0.00,Wunderground v.1.15,2013-02-18 08:35:00,
2013-02-18 03:40:00,32.3,22.9,30.33,WNW,302,3.0,3.0,68,0.00,,,0.00,Wunderground v.1.15,2013-02-18 08:40:00,
2013-02-18 03:50:00,32.2,22.8,30.32,WNW,302,4.0,4.0,68,0.00,,,0.00,Wunderground v.1.15,2013-02-18 08:50:00,
2013-02-18 04:00:00,31.9,22.9,30.32,WNW,303,3.0,4.0,69,0.00,,,0.00,Wunderground v.1.15,2013-02-18 09:00:00,
2013-02-18 04:10:00,31.6,22.9,30.32,WNW,302,3.0,3.0,70,0.00,,,0.00,Wunderground v.1.15,2013-02-18 09:10:00,
2013-02-18 04:20:00,31.3,22.6,30.33,NW,304,3.0,5.0,70,0.00,,,0.00,Wunderground v.1.15,2013-02-18 09:20:00,
2013-02-18 04:30:00,31.1,22.8,30.33,NW,308,3.0,3.0,71,0.00,,,0.00,Wunderground v.1.15,2013-02-18 09:30:00,
2013-02-18 04:40:00,31.0,22.7,30.33,WNW,290,4.0,4.0,71,0.00,,,0.00,Wunderground v.1.15,2013-02-18 09:40:00,
2013-02-18 04:45:00,30.9,22.9,30.33,NW,309,4.0,5.0,72,0.00,,,0.00,Wunderground v.1.15,2013-02-18 09:45:00,
2013-02-18 04:55:00,30.9,22.9,30.34,NW,312,4.0,4.0,72,0.00,,,0.00,Wunderground v.1.15,2013-02-18 09:55:00,
2013-02-18 05:00:00,30.9,22.9,30.34,WNW,303,4.0,4.0,72,0.00,,,0.00,Wunderground v.1.15,2013-02-18 10:00:00,
2013-02-18 05:10:00,30.9,22.9,30.34,NW,309,4.0,4.0,72,0.00,,,0.00,Wunderground v.1.15,2013-02-18 10:10:00,
2013-02-18 05:20:00,30.8,22.8,30.34,WNW,302,4.0,4.0,72,0.00,,,0.00,Wunderground v.1.15,2013-02-18 10:20:00,
2013-02-18 05:30:00,30.7,22.7,30.35,NW,315,4.0,4.0,72,0.00,,,0.00,Wunderground v.1.15,2013-02-18 10:30:00,
2013-02-18 05:40:00,30.5,22.9,30.35,NW,315,4.0,4.0,73,0.00,,,0.00,Wunderground v.1.15,2013-02-18 10:40:00,
2013-02-18 05:50:00,30.3,22.7,30.35,WNW,302,4.0,4.0,73,0.00,,,0.00,Wunderground v.1.15,2013-02-18 10:50:00,
2013-02-18 05:55:00,30.3,23.0,30.35,WNW,302,4.0,5.0,74,0.00,,,0.00,Wunderground v.1.15,2013-02-18 10:55:00,
2013-02-18 06:05:00,30.2,22.9,30.36,NW,304,4.0,4.0,74,0.00,,,0.00,Wunderground v.1.15,2013-02-18 11:05:00,
2013-02-18 06:10:00,30.2,22.9,30.36,WNW,295,1.0,1.0,74,0.00,,,0.00,Wunderground v.1.15,2013-02-18 11:10:00,
2013-02-18 06:20:00,30.5,23.5,30.36,WNW,295,0.0,0.0,75,0.00,,,0.00,Wunderground v.1.15,2013-02-18 11:20:00,
2013-02-18 06:30:00,30.1,23.1,30.37,WNW,296,0.0,2.0,75,0.00,,,0.00,Wunderground v.1.15,2013-02-18 11:30:00,
2013-02-18 06:40:00,29.8,22.8,30.37,NW,304,3.0,3.0,75,0.00,,,0.00,Wunderground v.1.15,2013-02-18 11:40:00,
2013-02-18 06:50:00,30.1,23.1,30.38,WNW,303,5.0,5.0,75,0.00,,,0.00,Wunderground v.1.15,2013-02-18 11:50:00,
2013-02-18 06:55:00,30.1,23.1,30.37,NW,304,5.0,6.0,75,0.00,,,0.00,Wunderground v.1.15,2013-02-18 11:55:00,
2013-02-18 07:05:00,30.3,23.0,30.38,NW,321,4.0,5.0,74,0.00,,,0.00,Wunderground v.1.15,2013-02-18 12:05:00,
2013-02-18 07:10:00,30.3,23.0,30.38,NNW,340,2.0,2.0,74,0.00,,,0.00,Wunderground v.1.15,2013-02-18 12:10:00,
2013-02-18 07:20:00,30.3,23.0,30.38,North,360,2.0,2.0,74,0.00,,,0.00,Wunderground v.1.15,2013-02-18 12:20:00,
2013-02-18 07:30:00,30.7,23.7,30.38,NW,312,2.0,2.0,75,0.00,,,0.00,Wunderground v.1.15,2013-02-18 12:30:00,
2013-02-18 07:35:00,31.1,23.8,30.38,NW,309,1.0,2.0,74,0.00,,,0.00,Wunderground v.1.15,2013-02-18 12:35:00,
2013-02-18 07:45:00,32.4,24.4,30.39,NNW,329,0.0,0.0,72,0.00,,,0.00,Wunderground v.1.15,2013-02-18 12:45:00,
2013-02-18 07:55:00,33.1,24.7,30.39,WNW,290,0.0,0.0,71,0.00,,,0.00,Wunderground v.1.15,2013-02-18 12:55:00,
2013-02-18 08:05:00,34.1,25.0,30.40,NW,306,0.0,0.0,69,0.00,,,0.00,Wunderground v.1.15,2013-02-18 13:05:00,
2013-02-18 08:15:00,35.0,24.8,30.40,North,355,0.0,0.0,66,0.00,,,0.00,Wunderground v.1.15,2013-02-18 13:15:00,
2013-02-18 08:25:00,36.2,24.8,30.41,North,9,0.0,0.0,63,0.00,,,0.00,Wunderground v.1.15,2013-02-18 13:25:00,
2013-02-18 08:35:00,37.1,24.5,30.41,NNW,334,0.0,0.0,60,0.00,,,0.00,Wunderground v.1.15,2013-02-18 13:35:00,
2013-02-18 08:40:00,37.3,24.7,30.41,NNE,18,1.0,1.0,60,0.00,,,0.00,Wunderground v.1.15,2013-02-18 13:40:00,
2013-02-18 08:45:00,37.7,25.1,30.41,NNE,25,1.0,2.0,60,0.00,,,0.00,Wunderground v.1.15,2013-02-18 13:45:00,
2013-02-18 08:50:00,38.0,24.9,30.41,NNE,26,1.0,1.0,59,0.00,,,0.00,Wunderground v.1.15,2013-02-18 13:50:00,
2013-02-18 09:00:00,38.4,25.7,30.42,NW,309,0.0,0.0,60,0.00,,,0.00,Wunderground v.1.15,2013-02-18 14:00:00,
2013-02-18 09:10:00,39.7,26.1,30.42,NNE,20,0.0,0.0,58,0.00,,,0.00,Wunderground v.1.15,2013-02-18 14:10:00,
2013-02-18 09:20:00,39.8,24.9,30.43,ENE,71,0.0,0.0,55,0.00,,,0.00,Wunderground v.1.15,2013-02-18 14:20:00,
2013-02-18 09:30:00,40.3,25.4,30.43,ENE,74,0.0,0.0,55,0.00,,,0.00,Wunderground v.1.15,2013-02-18 14:30:00,
2013-02-18 09:35:00,40.6,25.7,30.43,ENE,77,0.0,0.0,55,0.00,,,0.00,Wunderground v.1.15,2013-02-18 14:35:00,
2013-02-18 09:40:00,40.3,27.1,30.43,SE,128,0.0,0.0,59,0.00,,,0.00,Wunderground v.1.15,2013-02-18 14:40:00,
2013-02-18 09:50:00,40.2,28.2,30.44,ESE,121,0.0,0.0,62,0.00,,,0.00,Wunderground v.1.15,2013-02-18 14:50:00,
2013-02-18 10:00:00,40.5,25.6,30.44,East,91,0.0,0.0,55,0.00,,,0.00,Wunderground v.1.15,2013-02-18 15:00:00,
2013-02-18 10:10:00,40.6,29.7,30.43,ESE,102,0.0,0.0,65,0.00,,,0.00,Wunderground v.1.15,2013-02-18 15:10:00,
2013-02-18 10:20:00,40.9,31.9,30.43,ESE,103,0.0,0.0,70,0.00,,,0.00,Wunderground v.1.15,2013-02-18 15:20:00,
2013-02-18 10:30:00,41.4,32.7,30.43,East,94,0.0,0.0,71,0.00,,,0.00,Wunderground v.1.15,2013-02-18 15:30:00,
2013-02-18 10:40:00,41.8,32.7,30.44,ESE,105,0.0,0.0,70,0.00,,,0.00,Wunderground v.1.15,2013-02-18 15:40:00,
2013-02-18 10:45:00,42.2,33.1,30.44,ESE,105,0.0,0.0,70,0.00,,,0.00,Wunderground v.1.15,2013-02-18 15:45:00,
2013-02-18 10:50:00,42.1,33.0,30.44,ESE,111,0.0,0.0,70,0.00,,,0.00,Wunderground v.1.15,2013-02-18 15:50:00,
2013-02-18 11:00:00,42.8,33.0,30.44,East,86,0.0,0.0,68,0.00,,,0.00,Wunderground v.1.15,2013-02-18 16:00:00,
2013-02-18 11:05:00,42.9,33.8,30.43,ENE,78,0.0,0.0,70,0.00,,,0.00,Wunderground v.1.15,2013-02-18 16:05:00,
2013-02-18 11:10:00,43.0,32.8,30.43,ESE,108,0.0,0.0,67,0.00,,,0.00,Wunderground v.1.15,2013-02-18 16:10:00,
2013-02-18 11:20:00,42.9,31.9,30.43,East,92,0.0,0.0,65,0.00,,,0.00,Wunderground v.1.15,2013-02-18 16:20:00,
2013-02-18 11:25:00,43.0,32.4,30.43,ESE,122,0.0,0.0,66,0.00,,,0.00,Wunderground v.1.15,2013-02-18 16:25:00,
2013-02-18 11:35:00,43.3,31.9,30.43,ESE,113,0.0,0.0,64,0.00,,,0.00,Wunderground v.1.15,2013-02-18 16:35:00,
2013-02-18 11:40:00,43.4,32.0,30.43,ESE,120,0.0,0.0,64,0.00,,,0.00,Wunderground v.1.15,2013-02-18 16:40:00,
2013-02-18 11:50:00,43.7,32.7,30.42,East,97,0.0,0.0,65,0.00,,,0.00,Wunderground v.1.15,2013-02-18 16:50:00,
2013-02-18 11:55:00,43.8,31.6,30.42,East,99,0.0,0.0,62,0.00,,,0.00,Wunderground v.1.15,2013-02-18 16:55:00,
2013-02-18 12:05:00,43.7,30.7,30.42,ESE,115,0.0,0.0,60,0.00,,,0.00,Wunderground v.1.15,2013-02-18 17:05:00,
2013-02-18 12:10:00,44.1,31.9,30.42,ESE,123,0.0,0.0,62,0.00,,,0.00,Wunderground v.1.15,2013-02-18 17:10:00,
2013-02-18 12:20:00,44.3,30.0,30.42,ESE,121,0.0,0.0,57,0.00,,,0.00,Wunderground v.1.15,2013-02-18 17:20:00,
2013-02-18 12:30:00,44.6,30.3,30.41,ESE,111,0.0,0.0,57,0.00,,,0.00,Wunderground v.1.15,2013-02-18 17:30:00,
2013-02-18 12:40:00,44.8,30.0,30.41,ESE,123,0.0,0.0,56,0.00,,,0.00,Wunderground v.1.15,2013-02-18 17:40:00,
2013-02-18 12:50:00,45.3,29.2,30.41,SE,135,0.0,0.0,53,0.00,,,0.00,Wunderground v.1.15,2013-02-18 17:50:00,
2013-02-18 13:00:00,45.3,29.2,30.40,SE,124,0.0,0.0,53,0.00,,,0.00,Wunderground v.1.15,2013-02-18 18:00:00,
2013-02-18 13:10:00,45.6,29.9,30.40,SE,142,0.0,0.0,54,0.00,,,0.00,Wunderground v.1.15,2013-02-18 18:10:00,
2013-02-18 13:20:00,45.6,28.0,30.40,SSE,167,0.0,0.0,50,0.00,,,0.00,Wunderground v.1.15,2013-02-18 18:20:00,
2013-02-18 13:30:00,46.3,30.1,30.39,SE,126,0.0,0.0,53,0.00,,,0.00,Wunderground v.1.15,2013-02-18 18:30:00,
2013-02-18 13:40:00,46.1,27.5,30.39,SE,141,0.0,0.0,48,0.00,,,0.00,Wunderground v.1.15,2013-02-18 18:40:00,
2013-02-18 13:50:00,46.4,29.7,30.39,SE,136,0.0,0.0,52,0.00,,,0.00,Wunderground v.1.15,2013-02-18 18:50:00,
2013-02-18 14:00:00,46.6,29.9,30.38,SSE,163,0.0,0.0,52,0.00,,,0.00,Wunderground v.1.15,2013-02-18 19:00:00,
2013-02-18 14:05:00,46.9,28.7,30.38,SSE,167,0.0,0.0,49,0.00,,,0.00,Wunderground v.1.15,2013-02-18 19:05:00,
2013-02-18 14:15:00,46.9,29.7,30.38,South,190,0.0,0.0,51,0.00,,,0.00,Wunderground v.1.15,2013-02-18 19:15:00,
2013-02-18 14:25:00,46.8,29.6,30.38,SSE,167,0.0,0.0,51,0.00,,,0.00,Wunderground v.1.15,2013-02-18 19:25:00,
2013-02-18 14:35:00,47.1,28.9,30.38,SSE,166,0.0,0.0,49,0.00,,,0.00,Wunderground v.1.15,2013-02-18 19:35:00,
2013-02-18 14:45:00,47.2,28.5,30.38,SSE,163,0.0,0.0,48,0.00,,,0.00,Wunderground v.1.15,2013-02-18 19:45:00,
2013-02-18 14:55:00,47.6,27.8,30.38,SSE,148,0.0,0.0,46,0.00,,,0.00,Wunderground v.1.15,2013-02-18 19:55:00,
2013-02-18 15:05:00,47.7,26.8,30.38,SSW,197,0.0,0.0,44,0.00,,,0.00,Wunderground v.1.15,2013-02-18 20:05:00,
2013-02-18 15:15:00,47.7,25.7,30.38,SSW,193,0.0,0.0,42,0.00,,,0.00,Wunderground v.1.15,2013-02-18 20:15:00,
2013-02-18 15:25:00,47.8,28.0,30.37,SSE,160,0.0,0.0,46,0.00,,,0.00,Wunderground v.1.15,2013-02-18 20:25:00,
2013-02-18 15:35:00,47.9,28.6,30.36,SE,144,0.0,0.0,47,0.00,,,0.00,Wunderground v.1.15,2013-02-18 20:35:00,
2013-02-18 15:45:00,48.0,28.7,30.36,SE,128,0.0,0.0,47,0.00,,,0.00,Wunderground v.1.15,2013-02-18 20:45:00,
2013-02-18 15:55:00,48.2,28.9,30.36,South,179,0.0,0.0,47,0.00,,,0.00,Wunderground v.1.15,2013-02-18 20:55:00,
2013-02-18 16:05:00,48.3,29.5,30.37,SE,128,0.0,0.0,48,0.00,,,0.00,Wunderground v.1.15,2013-02-18 21:05:00,
2013-02-18 16:15:00,48.3,25.7,30.36,SSE,148,0.0,0.0,41,0.00,,,0.00,Wunderground v.1.15,2013-02-18 21:15:00,
2013-02-18 16:20:00,48.2,27.8,30.36,SSE,150,0.0,0.0,45,0.00,,,0.00,Wunderground v.1.15,2013-02-18 21:20:00,
2013-02-18 16:25:00,48.3,26.8,30.36,SSE,150,0.0,0.0,43,0.00,,,0.00,Wunderground v.1.15,2013-02-18 21:25:00,
2013-02-18 16:35:00,48.3,29.5,30.36,South,173,0.0,0.0,48,0.00,,,0.00,Wunderground v.1.15,2013-02-18 21:35:00,
2013-02-18 16:45:00,48.1,30.3,30.36,SSE,167,0.0,0.0,50,0.00,,,0.00,Wunderground v.1.15,2013-02-18 21:45:00,
2013-02-18 16:50:00,47.9,29.1,30.36,SSE,158,0.0,0.0,48,0.00,,,0.00,Wunderground v.1.15,2013-02-18 21:50:00,
2013-02-18 17:00:00,47.9,30.1,30.36,SSE,151,0.0,0.0,50,0.00,,,0.00,Wunderground v.1.15,2013-02-18 22:00:00,
2013-02-18 17:10:00,48.2,31.4,30.36,South,178,0.0,0.0,52,0.00,,,0.00,Wunderground v.1.15,2013-02-18 22:10:00,
2013-02-18 17:20:00,48.2,31.4,30.36,SE,146,0.0,0.0,52,0.00,,,0.00,Wunderground v.1.15,2013-02-18 22:20:00,
2013-02-18 17:25:00,48.1,30.8,30.35,SSE,161,0.0,0.0,51,0.00,,,0.00,Wunderground v.1.15,2013-02-18 22:25:00,
2013-02-18 17:30:00,48.1,31.8,30.35,SSE,161,0.0,0.0,53,0.00,,,0.00,Wunderground v.1.15,2013-02-18 22:30:00,
2013-02-18 17:40:00,47.9,31.6,30.35,SSE,148,0.0,0.0,53,0.00,,,0.00,Wunderground v.1.15,2013-02-18 22:40:00,
2013-02-18 17:50:00,47.7,31.9,30.35,SSE,163,0.0,0.0,54,0.00,,,0.00,Wunderground v.1.15,2013-02-18 22:50:00,
2013-02-18 18:00:00,47.5,32.6,30.35,SSE,159,0.0,0.0,56,0.00,,,0.00,Wunderground v.1.15,2013-02-18 23:00:00,
2013-02-18 18:05:00,47.4,33.4,30.36,South,169,0.0,0.0,58,0.00,,,0.00,Wunderground v.1.15,2013-02-18 23:05:00,
2013-02-18 18:15:00,47.1,33.1,30.36,SSE,161,0.0,0.0,58,0.00,,,0.00,Wunderground v.1.15,2013-02-18 23:15:00,
2013-02-18 18:20:00,47.0,33.4,30.36,SSE,161,0.0,0.0,59,0.00,,,0.00,Wunderground v.1.15,2013-02-18 23:20:00,
2013-02-18 18:30:00,46.9,33.7,30.36,SSE,164,0.0,0.0,60,0.00,,,0.00,Wunderground v.1.15,2013-02-18 23:30:00,
2013-02-18 18:40:00,46.8,34.5,30.35,South,171,0.0,0.0,62,0.00,,,0.00,Wunderground v.1.15,2013-02-18 23:40:00,
2013-02-18 18:50:00,46.6,34.7,30.35,South,171,0.0,0.0,63,0.00,,,0.00,Wunderground v.1.15,2013-02-18 23:50:00,
2013-02-18 18:55:00,46.6,35.1,30.35,South,171,0.0,0.0,64,0.00,,,0.00,Wunderground v.1.15,2013-02-18 23:55:00,
2013-02-18 19:05:00,46.4,35.3,30.35,South,171,0.0,0.0,65,0.00,,,0.00,Wunderground v.1.15,2013-02-19 00:05:00,
2013-02-18 19:15:00,46.2,35.5,30.35,South,172,0.0,0.0,66,0.00,,,0.00,Wunderground v.1.15,2013-02-19 00:15:00,
2013-02-18 19:25:00,45.9,35.2,30.34,South,172,0.0,0.0,66,0.00,,,0.00,Wunderground v.1.15,2013-02-19 00:25:00,
2013-02-18 19:35:00,45.7,35.0,30.34,South,172,0.0,0.0,66,0.00,,,0.00,Wunderground v.1.15,2013-02-19 00:35:00,
2013-02-18 19:45:00,45.5,35.2,30.34,South,172,0.0,0.0,67,0.00,,,0.00,Wunderground v.1.15,2013-02-19 00:45:00,
2013-02-18 19:55:00,45.4,35.5,30.35,South,172,0.0,0.0,68,0.00,,,0.00,Wunderground v.1.15,2013-02-19 00:55:00,
2013-02-18 20:05:00,45.4,35.5,30.34,South,172,0.0,0.0,68,0.00,,,0.00,Wunderground v.1.15,2013-02-19 01:05:00,
2013-02-18 20:10:00,45.3,35.7,30.34,South,172,0.0,0.0,69,0.00,,,0.00,Wunderground v.1.15,2013-02-19 01:10:00,
2013-02-18 20:15:00,44.9,35.3,30.34,SSW,212,0.0,0.0,69,0.00,,,0.00,Wunderground v.1.15,2013-02-19 01:15:00,
2013-02-18 20:25:00,44.1,34.6,30.34,WNW,302,0.0,0.0,69,0.00,,,0.00,Wunderground v.1.15,2013-02-19 01:25:00,
2013-02-18 20:35:00,43.4,34.6,30.34,WNW,302,0.0,0.0,71,0.00,,,0.00,Wunderground v.1.15,2013-02-19 01:35:00,
2013-02-18 20:45:00,42.9,34.5,30.34,WNW,302,0.0,0.0,72,0.00,,,0.00,Wunderground v.1.15,2013-02-19 01:45:00,
2013-02-18 20:50:00,42.7,34.3,30.34,WNW,302,0.0,0.0,72,0.00,,,0.00,Wunderground v.1.15,2013-02-19 01:50:00,
2013-02-18 21:00:00,42.3,34.3,30.33,WNW,302,0.0,0.0,73,0.00,,,0.00,Wunderground v.1.15,2013-02-19 02:00:00,
2013-02-18 21:10:00,41.6,34.3,30.33,NW,312,1.0,1.0,75,0.00,,,0.00,Wunderground v.1.15,2013-02-19 02:10:00,
2013-02-18 21:20:00,41.5,34.2,30.33,NW,312,0.0,0.0,75,0.00,,,0.00,Wunderground v.1.15,2013-02-19 02:20:00,
2013-02-18 21:30:00,41.3,34.3,30.32,NW,312,0.0,0.0,76,0.00,,,0.00,Wunderground v.1.15,2013-02-19 02:30:00,
2013-02-18 21:40:00,41.1,34.1,30.32,NW,312,0.0,0.0,76,0.00,,,0.00,Wunderground v.1.15,2013-02-19 02:40:00,
2013-02-18 21:50:00,40.8,34.1,30.32,NW,312,0.0,0.0,77,0.00,,,0.00,Wunderground v.1.15,2013-02-19 02:50:00,
2013-02-18 21:55:00,40.6,34.0,30.31,NW,312,0.0,0.0,77,0.00,,,0.00,Wunderground v.1.15,2013-02-19 02:55:00,
2013-02-18 22:05:00,40.2,33.6,30.31,NW,312,0.0,0.0,77,0.00,,,0.00,Wunderground v.1.15,2013-02-19 03:05:00,
2013-02-18 22:10:00,40.0,33.4,30.31,NW,312,0.0,0.0,77,0.00,,,0.00,Wunderground v.1.15,2013-02-19 03:10:00,
2013-02-18 22:20:00,39.8,33.8,30.30,NW,312,0.0,0.0,79,0.00,,,0.00,Wunderground v.1.15,2013-02-19 03:20:00,
2013-02-18 22:30:00,39.5,33.5,30.29,NW,312,0.0,0.0,79,0.00,,,0.00,Wunderground v.1.15,2013-02-19 03:30:00,
2013-02-18 22:40:00,39.1,33.5,30.29,NW,312,0.0,0.0,80,0.00,,,0.00,Wunderground v.1.15,2013-02-19 03:40:00,
2013-02-18 22:45:00,38.9,33.3,30.29,NW,312,0.0,0.0,80,0.00,,,0.00,Wunderground v.1.15,2013-02-19 03:45:00,
2013-02-18 22:55:00,38.9,33.9,30.29,NW,313,0.0,0.0,82,0.00,,,0.00,Wunderground v.1.15,2013-02-19 03:55:00,
2013-02-18 23:05:00,38.9,34.2,30.29,NW,313,0.0,0.0,83,0.00,,,0.00,Wunderground v.1.15,2013-02-19 04:05:00,
2013-02-18 23:10:00,38.8,34.1,30.28,NW,313,0.0,0.0,83,0.00,,,0.00,Wunderground v.1.15,2013-02-19 04:10:00,
2013-02-18 23:15:00,38.8,34.1,30.29,NW,313,0.0,0.0,83,0.00,,,0.00,Wunderground v.1.15,2013-02-19 04:15:00,
2013-02-18 23:25:00,38.8,34.1,30.28,NW,313,0.0,0.0,83,0.00,,,0.00,Wunderground v.1.15,2013-02-19 04:25:00,
2013-02-18 23:35:00,38.4,34.0,30.28,NW,311,1.0,3.0,84,0.00,,,0.00,Wunderground v.1.15,2013-02-19 04:35:00,
2013-02-18 23:45:00,38.1,33.7,30.28,NW,311,0.0,1.0,84,0.00,,,0.00,Wunderground v.1.15,2013-02-19 04:45:00,
2013-02-18 23:50:00,38.1,33.7,30.28,NW,311,0.0,0.0,84,0.00,,,0.00,Wunderground v.1.15,2013-02-19 04:50:00,